Погода в Татарской Караболке

Россия / Челябинская область     55°56′42″N   61°10′48″E
темп.,
°C
ветер,
м/с
пор.,
м/с
влажн.,
%
обл.,
%
осадки,
мм/ч
давл.,
гПа
погр.,
м
28 июля, ср
ср2823:00+12зсз488929 0.9 1010159
02:00+9ссз368296 0.0 101192
05:00+7сз358740 0.0 101187
08:00+13сз476467 0.0 1011544
11:00+15сз7845100 0.0 10111859
14:00+16сз7842100 0.0 10102274
17:00+15сз795670 0.4 10111590
20:00+13зсз585727 0.0 1012741
29 июля, чт
чт2923:00+9зсз467354 0.0 101398
02:00+11зсз486110 0.0 1012368
05:00+7зсз3789100 0.0 1012142
08:00+12з496687 0.0 1012549
11:00+18зсз69425 0.0 10101664
14:00+22зсз7103317 0.0 10082676
17:00+22зсз6113492 0.0 10082640
20:00+19зюз36525 0.0 1007102
30 июля, пт
пт3023:00+15зюз4862100 0.0 1008129
02:00+13зюз4106670 0.0 1007148
05:00+13юз4660100 0.0 100793
08:00+17зюз6115838 0.0 1006564
11:00+17ююз6866100 0.0 1005863
14:00+14ююз5891100 0.8 1004384
17:00+14юз399499 1.1 1004501
20:00+15з499439 0.8 1004469
31 июля, сб
сб3123:00+15зсз4893100 0.8 1006421
02:00+13зюз34955 0.0 100657
05:00+13зюз349699 0.0 100670
08:00+18з4784100 0.0 1008364
11:00+23з4663100 0.1 1007893
14:00+24з5761100 1.5 10071126
17:00+20зюз5986100 3.8 1008542
20:00+18ююз489292 0.1 1007244
1 августа, вс
вс123:00+16ююз41196100 0.3 1007265
02:00+16ююз3695100 0.1 1006112
05:00+16зюз3796100 0.7 1006186
08:00+19з51191100 0.2 1006594
11:00+22зсз68640 0.2 1007929
14:00+27зсз7941100 0.0 10072535
17:00+26з794059 0.0 10082474
20:00+21зсз49615 0.0 1009278